Regional Weather Roundup
Issued by NWS Sioux Falls, SD

Home | Current Version | Previous Version | Text Only | Print | Product List | Glossary On
Versions: 1 2 3 4 5 6 7 8 9 10 11 12 13 14 15 16 17 18 19 20 21 22 23 24 25 26 27 28 29 30 31 32 33 34 35 36 37 38 39 40 41 42 43 44 45 46 47 48 49 50
000
ASUS43 KFSD 220310
RWRFSD

WEATHER ROUNDUP FOR SE SOUTH DAKOTA/SW MINNESOTA/NW IOWA
NATIONAL WEATHER SERVICE SIOUX FALLS SD
1000 PM CDT MON AUG 21 2017

NOTE: "FAIR" INDICATES FEW OR NO CLOUDS BELOW 12,000 FEET WITH NO
SIGNIFICANT WEATHER AND OR OBSTRUCTIONS TO VISIBILITY.


SDZ038>040-050-052>070-220400-
SOUTHEAST SOUTH DAKOTA

CITY           SKY/WX    TMP DP  RH WIND       PRES   REMARKS
BROOKINGS      CLEAR     64  61  90 CALM      29.99S
CHAMBERLAIN    CLEAR     70  58  67 NW8       30.06R
HURON          CLEAR     62  58  86 NW10      30.02R
MADISON        FAIR      63  63 100 W3        30.01R
MITCHELL       CLEAR     65  63  93 NW6       30.01R
SIOUX FALLS    PTCLDY    67  66  97 W3        29.99R
WINNER         FAIR      65  57  75 N7        30.09R
YANKTON        PTCLDY    66  64  93 S5        30.02
$$

MNZ071-072-080-081-089-090-097-098-220400-
SOUTHWEST MINNESOTA

CITY           SKY/WX    TMP DP  RH WIND       PRES   REMARKS
JACKSON        CLOUDY    63  61  94 CALM      29.97R
LUVERNE        CLOUDY    63  59  88 CALM      29.99S
MARSHALL       MOCLDY    65  62  90 W10       29.95S
MONTEVIDEO     CLEAR     63  63 100 CALM      29.93S
PIPESTONE      CLEAR     66  64  94 W6        29.99R
REDWOOD FALLS  CLOUDY    67  63  87 W9        29.92S
TRACY          CLOUDY    66  65  96 W6        29.96S
WINDOM         CLOUDY    66  63  88 W9        29.95S
WORTHINGTON    MOCLDY    64  62  93 W8        29.98R
$$

IAZ001>003-012>014-020>022-031-032-NEZ013-014-SDZ071-220400-
NORTHWEST IOWA

CITY           SKY/WX    TMP DP  RH WIND       PRES   REMARKS
CHEROKEE       CLOUDY    64  64 100 SW6       30.00R
DENISON        LGT RAIN  64  64 100 W6        30.01R
ESTHERVILLE    CLOUDY    63  63 100 W5        29.95S
ORANGE CITY      N/A     63  63 100 CALM      30.00R FOG
SHELDON        CLOUDY    63  61  94 SW6       29.98R
SIOUX CITY     CLOUDY    66  66 100 CALM      30.01R
SPENCER        CLOUDY    64  62  93 SW5       29.98R
STORM LAKE     CLOUDY    64  63  94 W5        29.98F
$$

ABBREVIATIONS USED IN REMARKS
   TC - TEMPERATURE IN CELSIUS
  WCI - WIND CHILL INDEX
   HX - HEAT INDEX
  VSB - VISIBILITY





USA.gov is the U.S. government's official web portal to all federal, state and local government web resources and services.